Time,TemperatureF,DewpointF,PressureIn,WindDirection,WindDirectionDegrees,WindSpeedMPH,WindSpeedGustMPH,Humidity,HourlyPrecipIn,Conditions,Clouds,dailyrainin,SoftwareType,DateUTC
2013-09-27 00:11:00,30.0,30.0,-100.00,NW,312,0.0,0.0,100,0.00,,,0.21,,2013-09-27 06:11:00,
2013-09-27 00:43:00,30.0,30.0,-100.00,NW,325,0.0,0.0,100,0.00,,,0.20,,2013-09-27 06:43:00,
2013-09-27 01:12:00,30.0,30.0,-100.00,NW,325,0.0,0.0,100,0.00,,,0.20,,2013-09-27 07:12:00,
2013-09-27 01:44:00,30.0,30.0,-100.00,NNW,332,0.0,0.0,100,0.00,,,0.19,,2013-09-27 07:44:00,
2013-09-27 02:11:00,30.0,30.0,-100.00,NNW,332,0.0,0.0,100,0.00,,,0.19,,2013-09-27 08:11:00,
2013-09-27 02:42:00,29.0,29.0,-100.00,NNW,337,0.0,0.0,100,0.00,,,0.18,,2013-09-27 08:42:00,
2013-09-27 03:12:00,29.0,29.0,-100.00,NNW,339,0.0,0.0,100,0.00,,,0.18,,2013-09-27 09:12:00,
2013-09-27 03:44:00,29.0,29.0,-100.00,NW,316,0.0,0.0,100,0.00,,,0.18,,2013-09-27 09:44:00,
2013-09-27 04:13:00,28.0,28.0,-100.00,NNW,335,0.0,0.0,100,0.00,,,0.17,,2013-09-27 10:13:00,
2013-09-27 04:42:00,27.0,27.0,-100.00,NNW,343,0.0,0.0,100,0.00,,,0.17,,2013-09-27 10:42:00,
2013-09-27 05:12:00,27.0,27.0,-100.00,NW,315,0.0,0.0,100,0.00,,,0.17,,2013-09-27 11:12:00,
2013-09-27 05:43:00,28.0,28.0,-100.00,NW,312,0.0,0.0,100,0.00,,,0.17,,2013-09-27 11:43:00,
2013-09-27 06:12:00,28.0,28.0,-100.00,NW,323,0.0,0.0,100,0.00,,,0.17,,2013-09-27 12:12:00,
2013-09-27 06:42:00,28.0,28.0,-100.00,NW,325,0.0,0.0,100,0.00,,,0.17,,2013-09-27 12:42:00,
2013-09-27 07:11:00,27.0,27.0,-100.00,WSW,248,0.0,0.0,100,0.00,,,0.16,,2013-09-27 13:11:00,
2013-09-27 07:42:00,25.0,25.0,-100.00,WSW,248,0.0,0.0,100,0.00,,,0.16,,2013-09-27 13:42:00,
2013-09-27 08:11:00,24.0,24.0,-100.00,WSW,243,0.0,0.0,100,0.00,,,0.16,,2013-09-27 14:11:00,
2013-09-27 08:42:00,23.0,23.0,-100.00,WSW,243,0.0,0.0,100,0.00,,,0.15,,2013-09-27 14:42:00,
2013-09-27 09:11:00,24.0,24.0,-100.00,SW,232,0.0,0.0,100,0.00,,,0.15,,2013-09-27 15:11:00,
2013-09-27 09:44:00,28.0,28.0,-100.00,ESE,114,0.0,0.0,100,0.00,,,0.15,,2013-09-27 15:44:00,
2013-09-27 10:13:00,29.0,29.0,-100.00,ESE,119,0.0,0.0,100,0.00,,,0.15,,2013-09-27 16:13:00,
2013-09-27 10:44:00,30.0,30.0,-100.00,SE,141,0.0,0.0,100,0.00,,,0.15,,2013-09-27 16:44:00,
2013-09-27 11:13:00,32.0,32.0,-100.00,SSE,160,0.0,0.0,100,0.00,,,0.15,,2013-09-27 17:13:00,
2013-09-27 11:43:00,34.0,34.0,-100.00,South,182,0.0,0.0,100,0.00,,,0.15,,2013-09-27 17:43:00,
2013-09-27 12:13:00,34.0,34.0,-100.00,South,181,0.0,0.0,100,0.00,,,0.15,,2013-09-27 18:13:00,
2013-09-27 12:43:00,35.0,35.0,-100.00,SW,236,0.0,0.0,100,0.00,,,0.15,,2013-09-27 18:43:00,
2013-09-27 13:12:00,37.0,36.0,-100.00,West,268,0.0,0.0,98,0.00,,,0.15,,2013-09-27 19:12:00,
2013-09-27 13:43:00,36.0,36.0,-100.00,SW,229,0.0,0.0,100,0.00,,,0.15,,2013-09-27 19:43:00,
2013-09-27 14:12:00,35.0,34.0,-100.00,SE,137,0.0,0.0,98,0.00,,,0.13,,2013-09-27 20:12:00,
2013-09-27 14:43:00,35.0,34.0,-100.00,South,189,0.0,0.0,96,0.00,,,0.13,,2013-09-27 20:43:00,
2013-09-27 15:11:00,34.0,33.0,-100.00,South,174,0.0,0.0,97,0.00,,,0.11,,2013-09-27 21:11:00,
2013-09-27 15:44:00,36.0,34.0,-100.00,WNW,295,0.0,0.0,94,0.00,,,0.08,,2013-09-27 21:44:00,
2013-09-27 16:14:00,35.0,34.0,-100.00,WSW,239,0.0,0.0,94,0.00,,,0.08,,2013-09-27 22:14:00,
2013-09-27 16:43:00,35.0,33.0,-100.00,SE,131,0.0,0.0,91,0.00,,,0.06,,2013-09-27 22:43:00,
2013-09-27 17:12:00,35.0,34.0,-100.00,SE,140,0.0,0.0,93,0.00,,,0.05,,2013-09-27 23:12:00,
2013-09-27 17:43:00,36.0,34.0,-100.00,SE,136,0.0,0.0,95,0.00,,,0.04,,2013-09-27 23:43:00,
2013-09-27 18:12:00,35.0,34.0,-100.00,South,174,0.0,1.0,96,0.00,,,0.03,,2013-09-28 00:12:00,
2013-09-27 18:42:00,34.0,33.0,-100.00,SE,126,3.0,4.0,96,0.00,,,0.03,,2013-09-28 00:42:00,
2013-09-27 19:12:00,35.0,34.0,-100.00,SE,137,4.0,6.0,97,0.00,,,0.02,,2013-09-28 01:12:00,
2013-09-27 19:42:00,34.0,33.0,-100.00,SSE,157,3.0,5.0,96,0.00,,,0.02,,2013-09-28 01:42:00,
2013-09-27 20:12:00,34.0,33.0,-100.00,SE,136,3.0,4.0,98,0.00,,,0.02,,2013-09-28 02:12:00,
2013-09-27 20:42:00,34.0,34.0,-100.00,SE,140,2.0,3.0,99,0.00,,,0.01,,2013-09-28 02:42:00,
2013-09-27 21:12:00,35.0,33.0,-100.00,SSE,157,5.0,10.0,95,0.00,,,0.01,,2013-09-28 03:12:00,
2013-09-27 21:45:00,34.0,33.0,-100.00,SSE,154,5.0,7.0,96,0.00,,,0.01,,2013-09-28 03:45:00,
2013-09-27 22:13:00,35.0,33.0,-100.00,SSE,167,6.0,11.0,94,0.00,,,0.01,,2013-09-28 04:13:00,
2013-09-27 22:43:00,35.0,33.0,-100.00,SSE,154,3.0,5.0,94,0.00,,,0.01,,2013-09-28 04:43:00,
2013-09-27 23:13:00,34.0,33.0,-100.00,SSE,168,2.0,3.0,96,0.00,,,0.01,,2013-09-28 05:13:00,
2013-09-27 23:43:00,34.0,33.0,-100.00,South,171,3.0,6.0,95,0.00,,,0.01,,2013-09-28 05:43:00,